Namest Nad Oslav, Czech Republic

5:45 AM CEST on August 21, 2017 (GMT +0200)
Namest

Weather History for LKNA - November, 2013

Change the Weather History Date:

Monday, November 4, 2013

  Actual Average Record
Temperature  
Mean Temperature 42 °F -  
Max Temperature 48 °F - - ()
Min Temperature 35 °F - - ()
Degree Days  
Heating Degree Days 24    
Moisture  
Dew Point 40 °F    
Average Humidity 91    
Maximum Humidity 100    
Minimum Humidity 71    
Precipitation  
Precipitation 0.00 in - - ()
Sea Level Pressure  
Sea Level Pressure 29.59 in    
Wind  
Wind Speed 8 mph ()    
Max Wind Speed 20 mph    
Max Gust Speed 31 mph    
Visibility 6.1 miles    
Events      
T = Trace of Precipitation, MM = Missing Value Source: Averaged Metar Reports

Daily Weather History Graph

Daily Weather History Graph

Search for Another Location

Airport or City:

Trip Planner

Search our weather history database for the weather conditions in past years. The results will help you decide how hot, cold, wet, or windy it might be!

Date:

Astronomy

Nov. 04, 2013 Rise Set
Actual Time 6:47 AM CET 4:29 PM CET
Civil Twilight 6:14 AM CET 5:03 PM CET
Nautical Twilight 5:36 AM CET 5:40 PM CET
Astronomical Twilight 4:59 AM CET 6:17 PM CET
Moon 7:43 AM CET (11/4) 5:13 PM CET (11/4)
Length of Visible Light 10h 48m
Length of Day
9h 41m
New Moon, 1% of the Moon is Illuminated
Nov 4
New Moon
Nov 10
First Quarter
Nov 17
Full
Nov 25
Last Quarter
Dec 3
New

Hourly Weather History & Observations

Time (CET) Temp. Windchill Dew Point Humidity Pressure Visibility Wind Dir Wind Speed Gust Speed Precip Events Conditions
12:00 AM 37.4 °F 32.1 °F 35.6 °F 93% 29.83 in - West 6.9 mph - N/A   Clear
1:00 AM 37.4 °F 33.8 °F 35.6 °F 93% 29.83 in - West 4.6 mph - N/A   Clear
2:00 AM 35.6 °F 30.7 °F 35.6 °F 100% 29.83 in - SSW 5.8 mph - N/A   Clear
3:00 AM 37.4 °F 32.8 °F 35.6 °F 93% 29.83 in - SSW 5.8 mph - N/A   Clear
4:00 AM 37.4 °F 33.8 °F 35.6 °F 93% 29.80 in - SSW 4.6 mph - N/A   Clear
5:00 AM 37.4 °F 31.4 °F 35.6 °F 93% 29.77 in - South 8.1 mph - N/A   Clear
6:00 AM 37.4 °F 32.8 °F 35.6 °F 93% 29.74 in - South 5.8 mph - N/A   Clear
7:00 AM 39.2 °F 34.2 °F 35.6 °F 87% 29.74 in - South 6.9 mph - N/A   Clear
8:00 AM 39.2 °F 33.6 °F 37.4 °F 93% 29.71 in - SSE 8.1 mph - N/A   Clear
9:00 AM 41.0 °F 34.7 °F 37.4 °F 87% 29.68 in - SE 10.4 mph - N/A   Clear
10:00 AM 42.8 °F 37.5 °F 39.2 °F 87% 29.62 in - SE 9.2 mph - N/A   Clear
11:00 AM 44.6 °F 39.2 °F 41.0 °F 87% 29.59 in - SE 10.4 mph - N/A   Clear
12:00 PM 48.2 °F - 39.2 °F 71% 29.56 in 6.2 mi SSE 19.6 mph 31.1 mph N/A   Mostly Cloudy
1:00 PM 46.4 °F 39.2 °F 39.2 °F 76% 29.53 in 6.2 mi SSE 18.4 mph 28.8 mph N/A   Mostly Cloudy
2:00 PM 46.4 °F 39.5 °F 41.0 °F 81% 29.47 in 6.2 mi SE 17.3 mph - N/A   Mostly Cloudy
2:45 PM 46.4 °F 39.8 °F 42.8 °F 87% 29.47 in 6.2 mi SSE 16.1 mph 26.5 mph N/A   Mostly Cloudy
3:00 PM 46.4 °F 40.1 °F 42.8 °F 87% 29.47 in 6.2 mi SSE 15.0 mph - N/A   Mostly Cloudy
3:33 PM 44.6 °F 38.1 °F 42.8 °F 93% 29.44 in 6.2 mi SSE 13.8 mph - N/A   Overcast
4:00 PM 44.6 °F 37.8 °F 42.8 °F 93% 29.44 in 6.2 mi SE 15.0 mph - N/A   Overcast
5:00 PM 44.6 °F 38.1 °F 42.8 °F 93% 29.42 in 6.2 mi SE 13.8 mph - N/A   Overcast
6:00 PM 44.6 °F 39.2 °F 42.8 °F 93% 29.42 in 6.2 mi SSE 10.4 mph - N/A   Overcast
7:00 PM 44.6 °F 39.2 °F 42.8 °F 93% 29.42 in 6.2 mi SSE 10.4 mph - N/A   Overcast
8:00 PM 44.6 °F 40.7 °F 42.8 °F 93% 29.42 in 6.2 mi ESE 6.9 mph - N/A   Overcast
9:00 PM 44.6 °F 40.7 °F 44.6 °F 100% 29.42 in 6.2 mi SE 6.9 mph - N/A   Overcast
10:00 PM 44.6 °F - 44.6 °F 100% 29.42 in 6.2 mi Variable 2.3 mph - N/A   Overcast
11:00 PM 44.6 °F - 44.6 °F 100% 29.42 in 5.0 mi Variable 2.3 mph - N/A   Overcast